Flag for U.S.A. Weather past 2 weeks in Davenport, Iowa, U.S.A.

Now
70 °F

Passing clouds.


Feels Like: 65 °F
Forecast: 66 / 80 °F
Wind: 12 mph from Southwest

Location: Davenport Municipal Airport

Current Time: Aug 30, 2014 at 1:32:45 AM

Latest Report: Aug 30, 2014 at 12:52 AM


Visibility: 8 mi

Pressure: 29.82 "Hg

Humidity: 93%

Dew point: 68 °F

Location of DavenportLocation

Historic Weather in Davenport — Graph

°F

Davenport temperature yesterday

Maximum temperature yesterday: 86 °F (at 3:52 PM)
Minimum temperature yesterday: 69 °F (at 12:52 AM)
Average temperature yesterday: 76 °F

Past Weeks' High & Low Weather Summary

 TemperatureHumidityPressure
High91 °F (Aug 24, 1:52 PM)97% (Aug 17, 4:52 AM)30.17 "Hg (Aug 17, 4:52 AM)
Low58 °F (Aug 15, 3:52 AM)51% (Aug 19, 2:52 PM)29.70 "Hg (Aug 19, 4:52 AM)
Average73 °F82%29.94 "Hg
* Reported Aug 14 11:52 PM — Aug 29 11:52 PM, Davenport, Weather by CustomWeather, © 2014

Note: Actual official high and low records may vary slightly from our data, if they occured in-between our weather recording intervals... More about our weather records

Advertising

Davenport weather history for previous 24 hours

 ConditionsComfort  
Time TempWeatherWind HumidityBarometerVisibility
11:52 PM
Aug 29
71 °FClear.14 mph90%29.81 "Hg10 mi
10:52 PM72 °FPartly cloudy.14 mph87%29.80 "Hg10 mi
9:52 PM72 °FPassing clouds.15 mph81%29.81 "Hg10 mi
8:52 PM75 °FClear.10 mph85%29.80 "Hg9 mi
7:52 PM79 °FLight rain. Scattered clouds.10 mph72%29.79 "Hg10 mi
6:52 PM80 °FScattered clouds.7 mph71%29.80 "Hg10 mi
5:52 PM82 °FPassing clouds.10 mph67%29.80 "Hg10 mi
4:52 PM84 °FScattered clouds.10 mph63%29.81 "Hg10 mi
3:52 PM86 °FScattered clouds.10 mph63%29.81 "Hg10 mi
1:52 PM85 °FSunny.12 mph65%29.86 "Hg10 mi
12:52 PM84 °FSunny.14 mph70%29.88 "Hg10 mi
11:52 AM82 °FSunny.13 mph70%29.90 "Hg10 mi
10:52 AM80 °FSunny.12 mph74%29.91 "Hg10 mi
9:52 AM77 °FSunny.12 mph77%29.91 "Hg10 mi
8:52 AM74 °FSunny.12 mph85%29.90 "Hg10 mi
7:52 AM71 °FSunny.3 mph87%29.92 "Hg9 mi
6:52 AM69 °FPassing clouds.5 mph90%29.92 "Hg8 mi
5:52 AM71 °FClear.10 mph84%29.90 "Hg10 mi
4:52 AM70 °FClear.9 mph90%29.90 "Hg10 mi
3:52 AM70 °FClear.7 mph90%29.91 "Hg10 mi
2:52 AM69 °FClear.7 mph93%29.92 "Hg10 mi
1:52 AM69 °FPassing clouds.8 mph93%29.94 "Hg8 mi
Weather by CustomWeather, © 2014

See weather overviewHow to use our weather pages